Theta_e
312 322 323 326 317 316 319 321 324 325 327 326 327 334 341 342 354 357 347 362 363 356 355 353 345 343 340 341 341 345 342 337 335 329 330 334 340 341 338 337 337 338 341 340 339 338 338 342 342
312 318 323 319 316 317 317 322 322 326 327 326 326 338 340 342 343 342 347 362 364 355 354 353 346 342 339 339 342 344 342 338 335 329 332 335 338 339 340 343 341 344 344 343 343 341 341 342 335
318 321 320 315 315 316 318 320 322 325 324 324 326 328 338 342 340 341 346 360 366 358 353 352 347 342 339 339 339 343 342 339 335 329 332 335 337 338 344 348 346 346 345 346 346 344 340 336 332
321 319 317 319 320 320 318 319 322 322 322 323 324 336 333 336 339 343 346 362 365 362 355 352 348 342 339 342 340 343 342 340 334 330 332 334 337 339 347 350 348 346 346 345 342 338 336 333 330
320 314 318 318 317 317 318 319 321 323 323 321 322 330 332 334 334 340 344 355 364 363 361 354 350 342 340 341 342 343 342 341 334 331 333 334 340 342 343 349 349 346 345 341 336 334 332 327 323
314 313 315 316 317 318 318 320 321 322 321 321 321 322 326 326 328 328 339 356 364 363 361 359 353 344 339 341 343 343 343 341 334 333 336 336 341 342 341 346 348 346 344 337 334 332 329 323 323
315 315 317 317 319 319 320 321 322 322 322 321 321 321 322 321 324 325 338 359 363 363 360 358 351 345 339 341 344 344 343 341 334 335 337 337 341 341 339 340 345 345 340 337 334 332 325 326 326
313 314 316 316 318 317 318 317 321 321 323 321 320 321 321 321 322 325 327 361 364 363 360 358 355 344 340 340 344 344 344 341 336 338 339 339 340 341 338 335 341 346 339 337 333 333 326 326 325
316 311 312 314 315 314 314 314 317 318 319 319 320 319 319 320 321 322 324 333 364 364 363 358 355 346 342 341 344 345 344 343 338 340 342 342 342 341 337 333 341 341 337 334 330 333 327 325 324
312 310 312 314 314 315 314 314 314 317 316 317 317 318 320 320 320 320 320 319 358 361 361 357 355 350 346 347 342 343 346 346 345 344 344 343 341 340 336 333 338 337 334 332 330 330 325 324 324
314 312 316 316 315 315 315 314 315 315 315 315 315 315 316 318 318 319 320 320 337 359 360 360 355 352 347 350 346 341 344 348 349 345 344 341 341 341 340 338 339 342 340 331 331 329 333 336 338
317 316 315 314 315 315 315 314 315 315 314 314 314 315 315 315 315 319 319 319 320 358 357 359 356 352 347 347 347 340 338 339 341 343 341 339 342 344 344 340 339 339 339 331 328 337 341 341 342
314 314 314 313 313 312 314 314 313 313 314 314 315 316 314 313 314 317 319 319 318 328 355 359 358 356 354 355 347 344 340 338 337 340 340 336 339 344 339 342 342 343 335 335 337 339 340 342 343
315 314 314 314 313 313 313 313 314 314 315 315 315 315 314 313 313 315 317 318 318 322 340 346 352 354 355 355 350 344 343 341 339 339 338 335 338 344 342 344 348 343 340 340 340 341 341 343 341
315 315 314 315 314 314 315 314 315 315 316 316 317 316 315 313 315 314 315 318 319 323 322 340 340 346 348 353 353 345 346 344 342 342 342 338 338 346 342 344 344 344 342 343 345 347 346 344 347
315 315 314 315 315 315 316 315 315 316 315 316 317 317 316 316 315 316 317 317 318 318 321 327 332 336 347 349 354 351 349 349 343 343 344 344 340 344 347 343 342 342 340 338 338 344 341 343 346
314 314 315 314 314 314 314 313 316 315 315 315 316 316 317 316 316 317 317 318 318 319 320 323 332 331 336 346 350 352 351 351 349 348 346 346 343 345 347 344 342 342 340 339 339 340 345 347 348
314 313 313 313 313 314 314 314 314 314 316 316 316 315 315 316 317 319 320 320 318 318 318 319 327 331 334 344 350 352 351 351 351 350 350 347 344 347 345 342 343 341 338 339 345 345 347 346 346
312 312 313 314 314 313 313 314 314 314 316 316 317 315 314 314 317 319 320 321 320 318 318 319 329 327 328 331 339 353 351 350 350 338 348 349 346 346 344 344 342 340 337 343 346 347 346 347 345
313 313 314 314 314 314 314 314 314 314 315 316 317 317 315 315 317 318 320 321 321 320 320 322 332 331 325 327 340 349 348 351 344 337 339 350 347 346 344 344 341 339 340 345 349 347 348 340 337
314 314 314 315 316 315 315 315 314 315 315 316 317 319 317 315 316 318 318 321 322 322 321 324 326 323 322 324 330 346 347 348 350 342 345 350 347 346 344 344 340 341 341 346 348 347 346 337 331
315 315 316 317 317 317 315 317 315 315 316 319 319 317 317 319 319 318 321 319 323 321 322 326 324 322 321 321 328 335 346 346 347 349 349 346 348 346 344 342 340 346 345 350 348 347 346 339 333
315 315 316 316 316 315 317 317 318 319 321 323 322 322 322 318 316 316 316 321 323 322 320 326 325 322 321 323 329 331 335 340 343 348 347 345 343 346 345 342 340 343 347 348 347 345 344 338 331
316 315 315 314 314 316 316 324 321 323 323 322 323 322 321 319 316 316 318 319 323 323 322 322 327 327 326 326 333 339 341 346 349 347 345 347 345 341 342 341 338 348 348 347 345 339 332 327 323
315 313 314 317 317 319 324 322 322 322 323 322 322 322 321 320 317 317 317 315 320 322 321 320 323 328 325 328 337 342 341 342 347 350 346 347 347 346 344 340 346 346 346 343 336 330 325 321 318
316 315 314 320 322 321 321 321 321 323 323 323 322 320 320 319 317 319 319 319 322 322 322 324 326 330 332 333 335 340 340 339 343 348 347 345 346 344 345 346 344 342 340 333 327 321 318 317 318
316 315 314 318 320 321 320 318 321 323 324 322 321 321 321 320 320 319 318 318 320 320 323 322 325 324 324 325 325 339 341 340 339 346 347 346 345 344 344 338 332 331 328 322 318 315 316 317 317
315 315 318 320 327 324 319 319 325 325 324 323 324 322 321 320 320 317 317 318 320 320 321 321 321 325 325 324 324 326 340 339 337 342 345 343 341 339 340 334 329 325 319 315 317 318 318 315 314
315 314 315 320 322 326 322 319 323 323 325 324 321 320 321 320 319 317 318 318 319 320 320 320 322 322 325 326 324 326 328 339 339 339 341 339 335 330 336 329 324 323 320 317 319 317 314 314 312
313 318 319 322 324 324 324 326 322 321 322 322 321 320 319 318 317 317 317 316 317 317 318 320 321 323 324 324 325 326 326 338 336 338 341 340 336 334 331 331 323 318 318 318 316 315 312 309 308
Wind_Speed
10 9 15 6 3 4 5 9 11 18 1 6 5 16 16 10 6 7 4 15 14 18 24 22 19 19 17 16 17 14 13 12 11 12 13 15 15 15 15 16 16 15 14 12 11 9 7 5 4
9 11 3 2 3 0 6 17 9 4 6 8 9 15 16 11 12 6 8 21 16 19 24 22 19 17 17 17 14 15 14 13 11 12 12 14 15 14 14 14 13 13 12 10 9 7 6 4 3
11 6 2 4 3 5 6 10 5 4 8 7 6 8 6 5 8 5 7 19 20 19 20 21 19 16 15 16 16 16 15 14 13 14 13 14 15 15 14 13 12 11 10 8 7 6 4 3 2
7 2 4 1 9 11 10 18 6 4 6 5 3 8 6 11 5 9 4 22 22 20 17 21 18 16 14 14 15 17 16 15 14 15 15 15 15 15 14 12 10 9 8 7 6 5 3 2 1
4 2 1 3 8 10 14 13 5 2 3 5 3 5 7 10 10 9 7 12 22 23 17 20 19 17 14 13 15 17 17 15 15 15 15 15 15 15 15 13 11 9 7 6 5 4 3 2 1
3 2 3 3 8 11 9 10 5 4 6 10 6 7 5 18 11 13 9 13 22 24 21 19 20 19 16 14 16 17 17 16 16 16 15 14 15 15 15 14 11 9 7 5 4 3 2 2 1
3 1 5 8 11 15 12 9 5 5 4 7 5 8 3 10 6 10 9 11 21 21 19 18 19 19 18 16 16 16 17 17 17 17 15 14 15 15 14 14 13 11 9 6 5 4 3 3 3
4 1 6 6 8 11 10 11 8 7 4 4 6 5 4 4 8 6 8 18 20 18 17 17 18 20 20 19 17 16 17 17 18 17 16 16 17 16 16 15 14 13 10 7 6 5 5 5 5
2 3 4 8 5 7 9 11 11 13 8 5 4 4 4 5 9 10 3 4 25 20 17 16 17 21 20 19 19 17 16 17 18 18 17 17 18 18 17 17 16 14 11 8 7 7 6 6 7
3 3 7 6 6 6 9 9 9 9 10 8 9 8 16 18 5 10 2 7 9 20 23 19 18 19 20 17 21 19 18 19 19 22 21 20 19 18 17 17 16 14 12 10 9 8 7 8 7
6 5 5 12 8 6 8 6 8 9 9 9 8 12 11 10 9 7 4 13 7 15 17 19 23 18 24 21 19 22 21 21 22 22 23 22 20 16 17 18 18 18 15 13 11 9 8 5 5
2 6 5 11 11 6 6 11 4 6 8 10 10 9 8 10 7 4 5 12 14 18 13 14 22 23 24 24 23 25 26 24 24 24 24 25 25 23 25 21 20 19 18 15 13 12 10 6 5
6 7 8 9 10 9 8 9 11 7 10 10 10 10 12 9 8 15 10 14 20 8 18 14 15 23 22 13 29 27 27 27 26 25 25 27 29 27 25 25 23 18 16 16 14 13 13 14 7
6 8 9 8 13 11 13 10 7 13 9 11 11 11 10 10 9 13 16 17 22 14 16 17 17 17 24 21 27 28 28 28 27 27 27 27 29 27 30 26 26 19 17 16 15 16 14 12 9
12 11 10 16 14 14 16 10 14 11 11 13 15 12 11 10 14 15 23 18 15 11 18 20 17 16 17 26 24 30 25 31 29 31 28 28 30 26 30 26 21 20 19 14 13 10 10 9 12
10 6 7 12 7 8 8 11 11 12 10 13 10 7 7 8 9 16 17 16 20 19 14 18 20 20 18 20 28 31 30 23 34 36 34 32 33 30 28 24 22 20 15 14 12 7 8 12 10
6 6 14 12 14 17 7 13 8 9 13 11 10 9 9 9 9 22 23 22 20 19 18 18 24 22 20 18 19 33 36 28 25 35 39 34 35 33 29 27 26 21 19 17 14 15 13 9 10
11 10 9 15 10 12 18 21 12 10 8 9 14 11 9 10 12 22 27 29 28 24 20 17 24 25 20 14 16 20 36 35 21 20 38 40 38 37 29 30 24 27 21 18 19 18 16 7 3
9 11 16 16 15 11 14 18 20 15 7 14 17 11 10 10 14 25 32 32 28 27 24 18 25 25 20 16 14 18 25 33 30 18 28 42 42 39 31 29 23 27 25 21 21 14 16 8 2
9 10 14 15 14 15 18 22 20 13 13 17 13 17 16 8 8 9 20 26 24 26 23 16 27 26 22 17 14 15 21 23 39 36 49 45 45 40 34 30 26 26 24 19 14 22 12 8 4
9 8 13 15 18 18 17 17 17 14 17 16 17 13 9 11 10 10 10 20 25 23 20 19 25 21 17 16 18 14 18 23 26 38 33 33 43 35 33 29 24 26 27 19 17 14 12 10 9
7 10 15 18 13 12 7 18 17 14 18 12 18 6 10 6 6 8 7 8 22 27 23 23 25 22 19 17 18 19 18 21 25 30 24 12 25 26 34 30 22 25 25 17 18 16 16 16 15
7 9 15 19 17 13 11 6 13 14 10 16 14 12 17 6 9 9 9 2 22 25 24 25 28 27 25 21 21 20 19 24 28 26 25 24 27 29 23 24 25 26 24 24 22 19 17 19 17
7 10 17 9 7 7 7 1 3 3 4 10 7 7 7 7 9 8 7 10 2 21 25 22 24 29 25 22 21 23 23 22 22 22 19 23 30 29 27 27 28 28 28 25 22 20 21 20 19
12 7 5 5 4 7 5 4 8 14 13 11 13 10 8 9 9 5 7 6 12 3 18 20 20 28 29 28 26 23 22 23 24 22 16 23 28 31 36 30 28 32 31 27 25 23 22 19 21
4 1 3 6 10 16 9 7 2 5 12 15 20 15 11 6 7 10 9 9 18 22 23 25 27 4 22 27 24 21 21 21 21 21 18 19 30 23 26 27 31 32 32 28 27 25 24 22 22
7 3 8 7 6 4 5 8 3 12 11 8 14 20 15 20 11 9 9 13 19 24 17 18 15 14 15 8 14 18 20 22 21 18 14 14 16 23 22 32 32 30 29 30 30 28 25 22 23
9 6 8 2 4 5 5 6 3 8 13 14 16 15 16 16 15 12 8 10 14 18 22 18 16 14 7 11 13 10 20 20 18 16 12 5 15 28 38 33 30 30 26 27 28 28 26 26 22
12 11 7 3 5 4 4 4 6 6 6 6 0 5 9 10 11 12 14 13 19 20 23 25 26 18 18 10 13 16 13 15 14 14 10 11 24 27 42 33 33 34 29 26 26 29 27 27 25
13 3 4 3 5 3 3 5 5 5 9 8 11 8 4 3 7 8 5 12 16 18 22 22 25 28 23 14 17 17 17 14 11 8 5 22 25 23 26 35 33 33 34 30 30 29 30 29 25
Wind_Direction
301 303 307 299 43 83 268 263 243 297 70 319 71 95 91 56 62 115 71 133 120 140 155 156 152 145 147 147 143 146 149 145 137 138 140 140 137 135 136 136 137 136 136 135 137 139 136 116 86
314 320 232 268 116 98 266 254 307 9 22 20 30 93 74 77 94 90 67 144 127 139 157 157 157 153 155 152 150 150 157 155 149 148 146 145 144 142 139 137 137 137 137 134 134 131 127 114 75
308 298 56 150 201 201 246 268 338 1 59 23 27 79 73 106 66 96 58 145 135 141 161 162 161 160 163 159 157 157 163 163 159 157 155 153 152 151 146 142 142 139 134 132 129 127 124 105 76
321 354 331 88 270 269 251 277 279 359 8 61 64 78 69 54 85 111 76 157 144 144 155 169 166 167 171 168 163 161 167 168 167 164 162 161 161 160 155 153 154 144 140 142 144 144 144 127 69
243 333 268 257 260 268 278 278 257 150 352 8 98 89 104 82 78 77 54 119 152 152 155 170 176 173 174 174 172 167 170 174 172 170 169 169 167 168 166 164 166 157 155 157 153 155 158 170 217
343 135 22 257 270 276 284 292 161 40 21 352 48 109 80 74 51 9 30 73 160 156 158 161 177 177 176 180 180 175 175 177 177 175 173 175 173 175 175 177 174 171 168 173 170 183 204 211 258
175 124 244 271 283 300 311 321 55 36 21 27 349 94 109 77 55 15 35 112 143 153 157 161 174 182 179 182 185 184 181 181 180 181 179 179 178 183 183 189 184 184 185 196 211 217 237 252 285
177 133 298 291 283 284 9 360 360 20 306 60 17 30 171 185 111 44 9 132 141 150 161 169 179 181 183 182 188 191 189 186 184 186 186 184 184 187 189 190 188 196 198 206 225 237 250 266 283
97 32 295 266 312 309 2 10 350 335 20 26 20 335 255 334 109 109 296 349 147 156 161 171 177 188 189 185 185 192 194 192 188 189 190 190 191 192 194 193 194 203 209 217 230 247 259 271 278
135 145 246 267 332 339 331 17 324 355 343 338 345 332 322 348 294 137 317 5 151 148 166 175 179 189 185 187 188 189 191 196 195 195 193 196 194 197 201 198 197 207 217 224 229 240 251 264 276
262 209 308 311 316 341 338 351 346 350 328 314 322 320 330 357 13 35 22 312 190 175 176 176 185 189 180 185 193 190 194 194 197 200 200 194 191 193 198 197 205 214 220 224 222 226 231 242 280
25 316 302 283 301 346 322 302 299 281 274 291 306 304 309 316 315 316 314 305 323 174 185 186 180 187 187 206 200 199 198 201 200 202 205 197 191 200 196 204 212 216 223 225 219 223 235 235 231
347 307 301 320 328 311 299 278 280 260 268 266 273 279 290 292 294 290 268 276 286 152 167 177 191 201 201 214 202 201 203 202 205 205 209 204 194 203 201 208 216 215 212 214 212 226 243 231 234
293 303 309 294 270 265 256 254 261 273 265 277 263 258 256 254 276 286 274 242 264 246 164 186 198 212 217 222 205 200 206 206 206 207 209 207 201 207 201 205 212 215 214 214 223 227 224 200 243
297 289 281 269 256 250 243 253 245 260 261 258 265 245 239 236 244 256 264 248 253 243 219 196 202 216 223 219 220 203 204 209 203 206 210 204 206 211 205 212 213 210 225 215 200 171 180 214 240
273 262 278 281 302 315 204 248 242 253 260 257 247 284 211 243 247 256 252 263 263 259 235 218 212 218 228 224 221 223 222 211 208 206 210 207 204 208 205 211 214 215 211 215 220 208 225 227 249
278 298 312 318 337 335 319 283 272 290 297 283 259 236 224 226 232 247 250 254 256 251 248 223 206 216 230 234 240 229 235 229 216 211 209 208 202 206 208 205 208 210 215 209 220 222 212 234 216
321 322 310 312 320 303 293 298 293 281 283 299 298 258 228 219 223 225 239 239 236 243 242 252 221 205 213 226 247 249 243 247 234 235 211 203 202 205 206 205 204 203 206 203 211 218 222 187 169
329 323 309 303 304 306 297 283 281 276 281 281 276 267 254 235 225 224 236 236 225 228 231 227 206 209 218 226 237 242 250 245 246 273 261 207 202 205 204 208 203 200 206 210 211 188 178 146 159
312 305 306 306 327 326 314 304 298 284 270 264 261 271 256 241 246 227 225 226 217 216 210 208 194 198 213 229 235 246 257 259 235 234 238 214 203 204 199 204 202 202 202 204 198 184 146 114 109
309 312 328 317 323 309 293 293 300 306 301 279 263 261 251 235 238 232 219 209 204 188 189 199 195 207 224 237 241 253 258 259 242 225 234 210 201 202 200 205 203 199 204 203 188 168 148 132 106
333 332 315 302 301 293 317 295 288 284 288 310 266 328 298 241 236 199 191 205 193 191 184 188 196 206 223 238 232 240 238 255 262 254 252 254 201 206 204 202 202 198 207 200 171 160 145 149 141
302 314 291 291 287 305 316 260 299 303 305 339 337 64 339 0 74 55 25 284 196 190 188 187 196 206 222 229 227 235 247 255 268 273 275 220 206 212 215 205 203 213 205 169 160 145 148 148 140
305 322 322 304 312 297 283 120 305 314 292 311 323 19 331 319 78 59 23 13 29 188 185 192 204 209 214 225 232 224 233 246 260 273 263 214 208 203 216 226 214 200 167 159 158 151 143 139 124
344 332 320 330 346 264 345 319 254 317 285 303 319 293 137 255 76 32 7 349 28 84 199 208 207 210 214 216 222 225 233 247 260 268 265 231 214 200 199 200 195 165 161 159 156 148 140 134 118
290 79 194 282 301 292 300 258 324 49 44 26 349 309 345 32 65 54 42 48 50 43 42 48 47 328 225 214 221 232 239 255 264 269 284 244 221 208 182 183 174 160 156 154 146 134 126 123 118
299 250 249 285 300 297 237 262 328 21 30 29 347 359 13 16 357 45 41 52 34 24 28 33 30 21 25 15 2 253 250 257 268 273 287 266 202 190 188 164 157 148 147 145 139 130 123 121 113
280 293 312 291 273 263 254 319 210 1 2 340 7 353 359 7 358 348 14 19 23 15 14 5 8 3 339 349 318 335 253 257 286 291 299 225 167 164 158 156 144 133 133 133 132 129 128 120 118
315 302 306 282 154 274 292 268 169 171 148 262 342 292 314 342 344 350 347 24 21 15 12 4 3 1 356 315 330 325 303 268 286 300 305 170 154 132 149 147 146 141 141 139 136 126 119 116 114
264 135 117 293 307 311 292 267 227 179 158 206 249 220 265 249 301 324 334 357 7 0 356 355 357 354 345 338 343 327 323 261 294 294 240 179 172 177 175 154 152 146 146 145 137 124 129 121 110